FW8733 Weather Reports


Display with metric or nautical units.
time (UTC)temp
F
wind
direction
speed
MPH
gust
MPH
rain 1hr
in
rain 24hr
in
rain mn
in
humidity
%
barometer
mb
20260510011130 83 183 0.0 1.0 0.00 0.05 0.05 69 1012.0
20260510010627 83 193 3.0 5.0 0.00 0.05 0.05 68 1011.9
20260510010124 83 193 1.0 1.0 0.00 0.05 0.05 67 1011.5
20260510005619 83 193 2.0 3.0 0.00 0.05 0.05 67 1011.8
20260510005117 84 188 1.0 1.0 0.00 0.05 0.05 66 1011.9
20260510004615 84 198 1.0 2.0 0.00 0.05 0.05 64 1011.6
20260510004113 85 196 3.0 5.0 0.00 0.05 0.05 63 1011.6
20260510003610 85 197 5.0 6.0 0.00 0.05 0.05 62 1011.7
20260510003106 85 206 2.0 3.0 0.00 0.05 0.05 61 1011.7
20260510002600 85 154 3.0 3.0 0.00 0.05 0.05 59 1011.6
20260510002057 85 201 3.0 5.0 0.00 0.05 0.05 58 1011.3
20260510001554 86 196 2.0 3.0 0.00 0.05 0.05 58 1011.3
20260510001053 86 172 1.0 2.0 0.00 0.05 0.05 58 1011.3
20260510000548 86 119 4.0 6.0 0.00 0.05 0.05 55 1011.4
20260510000046 86 212 2.0 2.0 0.00 0.05 0.05 57 1011.3
20260509235541 86 191 4.0 6.0 0.00 0.05 0.05 55 1011.4
20260509235038 86 189 3.0 3.0 0.00 0.05 0.05 54 1011.0
20260509234534 87 193 4.0 5.0 0.00 0.05 0.05 53 1011.3
20260509234033 87 152 5.0 6.0 0.00 0.05 0.05 50 1011.2
20260509233530 87 201 5.0 7.0 0.00 0.05 0.05 50 1011.1
20260509233027 87 213 5.0 6.0 0.00 0.05 0.05 50 1011.2
20260509232524 87 124 3.0 6.0 0.00 0.05 0.05 50 1011.1
20260509232020 87 189 3.0 5.0 0.00 0.05 0.05 50 1011.0
20260509231516 88 197 3.0 3.0 0.00 0.05 0.05 50 1011.2
20260509231015 88 173 3.0 3.0 0.00 0.05 0.05 51 1010.8
20260509230511 88 186 3.0 3.0 0.00 0.05 0.05 51 1011.0
20260509230008 89 161 4.0 5.0 0.00 0.05 0.05 50 1011.2
20260509225503 89 186 2.0 2.0 0.00 0.05 0.05 50 1010.9
20260509224959 89 168 4.0 5.0 0.00 0.05 0.05 50 1011.0
20260509224455 89 181 3.0 3.0 0.00 0.05 0.05 51 1011.1
20260509223952 89 185 3.0 3.0 0.00 0.05 0.05 51 1011.1
20260509223449 89 158 3.0 3.0 0.00 0.05 0.05 50 1011.0
20260509222946 89 167 3.0 5.0 0.00 0.05 0.05 52 1011.0
20260509222441 89 183 6.0 7.0 0.00 0.05 0.05 50 1011.1
20260509221937 89 235 2.0 2.0 0.00 0.05 0.05 53 1011.2
20260509221434 89 201 2.0 2.0 0.00 0.05 0.05 52 1011.1
20260509220930 89 195 3.0 5.0 0.00 0.05 0.05 53 1011.1
20260509220426 88 195 3.0 3.0 0.00 0.05 0.05 52 1010.9
20260509215922 88 180 3.0 3.0 0.00 0.05 0.05 53 1011.1
20260509215418 87 187 4.0 5.0 0.00 0.05 0.05 55 1011.2
20260509214916 88 146 3.0 5.0 0.00 0.05 0.05 55 1011.3
20260509214413 88 153 4.0 7.0 0.00 0.05 0.05 56 1011.3
20260509213910 88 192 5.0 7.0 0.00 0.05 0.05 55 1011.2
20260509213405 89 187 5.0 8.0 0.00 0.05 0.05 55 1011.2
20260509212903 89 220 3.0 5.0 0.00 0.05 0.05 56 1011.2
20260509212400 90 186 3.0 5.0 0.00 0.05 0.05 55 1011.4
20260509211856 90 103 4.0 5.0 0.00 0.05 0.05 57 1011.5
20260509211352 91 182 3.0 5.0 0.00 0.05 0.05 53 1011.5
20260509210849 94 222 1.0 1.0 0.00 0.05 0.05 51 1011.3
20260509210346 95 203 0.0 0.0 0.00 0.05 0.05 46 1011.7
20260509205846 95 197 0.0 0.0 0.00 0.05 0.05 47 1011.4
20260509205340 95 200 1.0 1.0 0.00 0.05 0.05 45 1011.7
20260509204838 95 198 1.0 1.0 0.00 0.05 0.05 45 1011.7
20260509204334 94 199 0.0 0.0 0.00 0.05 0.05 50 1011.7
20260509203830 93 198 0.0 1.0 0.00 0.05 0.05 52 1011.8
20260509203327 93 265 1.0 1.0 0.00 0.05 0.05 48 1011.8
20260509202823 94 255 0.0 1.0 0.00 0.05 0.05 53 1012.0
20260509202320 94 314 0.0 0.0 0.00 0.05 0.05 54 1012.3
20260509201819 94 285 1.0 2.0 0.00 0.05 0.05 50 1012.2
20260509201316 93 223 0.0 1.0 0.00 0.05 0.05 55 1012.3
20260509200812 93 201 3.0 5.0 0.00 0.05 0.05 51 1012.6
20260509200308 93 222 0.0 0.0 0.00 0.05 0.05 58 1012.4
20260509195804 94 222 0.0 1.0 0.00 0.05 0.05 53 1012.6
20260509195259 94 222 0.0 0.0 0.00 0.05 0.05 56 1012.3
20260509194759 93 248 0.0 0.0 0.00 0.05 0.05 57 1012.3
20260509194255 92 248 0.0 0.0 0.00 0.05 0.05 56 1012.4
20260509193752 91 245 1.0 1.0 0.00 0.05 0.05 57 1012.4
20260509193247 92 242 0.0 0.0 0.00 0.05 0.05 56 1012.7
20260509192744 92 348 1.0 2.0 0.00 0.05 0.05 56 1012.8
20260509192244 91 264 0.0 1.0 0.00 0.05 0.05 59 1012.8
20260509191739 91 245 0.0 1.0 0.00 0.05 0.05 59 1012.7
20260509191236 91 264 1.0 2.0 0.00 0.05 0.05 59 1012.8
20260509190732 91 264 2.0 2.0 0.00 0.05 0.05 59 1013.0
20260509190229 89 262 1.0 1.0 0.00 0.05 0.05 62 1012.9
20260509185727 90 263 1.0 2.0 0.00 0.05 0.05 62 1013.0
20260509185223 90 196 0.0 0.0 0.00 0.05 0.05 61 1013.1
20260509184721 90 237 0.0 0.0 0.00 0.05 0.05 64 1013.3
20260509184218 90 237 1.0 1.0 0.00 0.05 0.05 62 1013.6
20260509183714 90 275 1.0 2.0 0.00 0.05 0.05 62 1013.4
20260509183209 91 193 1.0 2.0 0.00 0.05 0.05 63 1013.6
20260509182705 91 301 3.0 3.0 0.00 0.05 0.05 61 1013.4
20260509182203 90 226 0.0 0.0 0.00 0.05 0.05 64 1013.4
20260509181700 90 192 1.0 1.0 0.00 0.05 0.05 61 1013.7
20260509181158 90 243 1.0 1.0 0.00 0.05 0.05 63 1013.7
20260509180654 89 262 0.0 1.0 0.00 0.05 0.05 64 1013.8
20260509180150 89 336 2.0 3.0 0.00 0.05 0.05 64 1013.9
20260509175646 89 257 0.0 0.0 0.00 0.05 0.05 65 1013.8
20260509175143 87 261 0.0 1.0 0.00 0.05 0.05 69 1014.0
20260509174639 87 197 0.0 0.0 0.00 0.05 0.05 65 1014.1
20260509174134 89 195 3.0 3.0 0.00 0.05 0.05 65 1014.1
20260509173630 89 223 2.0 2.0 0.00 0.05 0.05 66 1014.5
20260509173126 88 224 0.0 1.0 0.00 0.05 0.05 67 1014.6
20260509172623 87 224 2.0 2.0 0.00 0.05 0.05 67 1014.7
20260509172119 87 248 1.0 1.0 0.00 0.05 0.05 65 1014.3
20260509171615 87 315 0.0 0.0 0.00 0.05 0.05 68 1014.4
20260509171111 86 315 1.0 2.0 0.00 0.05 0.05 69 1014.4
20260509170608 88 316 0.0 1.0 0.00 0.05 0.05 67 1014.3
20260509170104 86 311 0.0 0.0 0.00 0.05 0.05 72 1014.6
20260509165602 86 311 1.0 1.0 0.00 0.05 0.05 69 1014.5
20260509165058 86 312 0.0 0.0 0.00 0.05 0.05 74 1014.3
20260509164554 85 312 0.0 0.0 0.00 0.05 0.05 75 1014.6
20260509164050 85 315 2.0 3.0 0.00 0.05 0.05 75 1014.5
20260509163548 84 314 0.0 1.0 0.00 0.05 0.05 76 1014.7
20260509163044 83 315 0.0 0.0 0.00 0.05 0.05 80 1014.6
20260509162541 83 316 0.0 0.0 0.00 0.05 0.05 81 1014.7
20260509162036 83 237 0.0 1.0 0.00 0.05 0.05 80 1014.7
20260509161533 83 259 1.0 2.0 0.00 0.05 0.05 80 1014.5
20260509161028 83 142 0.0 1.0 0.00 0.05 0.05 82 1014.6
20260509160524 82 269 1.0 1.0 0.00 0.05 0.05 82 1014.5
20260509160020 81 199 1.0 2.0 0.00 0.05 0.05 86 1014.6
20260509155516 80 162 4.0 6.0 0.00 0.05 0.05 86 1014.6
20260509155012 79 167 0.0 0.0 0.00 0.05 0.05 89 1014.6
20260509154508 77 160 3.0 5.0 0.00 0.05 0.05 91 1014.9
20260509154006 77 221 3.0 3.0 0.00 0.05 0.05 91 1014.8
20260509153503 77 170 4.0 6.0 0.00 0.05 0.05 91 1014.9
20260509153000 76 175 3.0 5.0 0.00 0.05 0.05 92 1014.7
20260509152455 76 171 5.0 6.0 0.00 0.05 0.05 93 1014.6
20260509151953 76 216 3.0 5.0 0.00 0.05 0.05 93 1014.9
20260509151449 76 177 2.0 5.0 0.00 0.05 0.05 94 1014.6
20260509150948 76 181 1.0 2.0 0.00 0.05 0.05 94 1014.5
20260509150444 76 162 3.0 5.0 0.00 0.05 0.05 94 1014.4
20260509145942 76 239 1.0 2.0 0.00 0.05 0.05 94 1014.4
20260509145437 75 211 1.0 2.0 0.00 0.05 0.05 95 1014.5
20260509144933 75 191 1.0 1.0 0.00 0.05 0.05 96 1014.4
20260509144430 75 156 2.0 3.0 0.00 0.05 0.05 96 1014.4
20260509143927 74 226 1.0 1.0 0.00 0.05 0.05 97 1014.5
20260509143424 74 185 2.0 2.0 0.00 0.05 0.05 97 1014.5
20260509142920 75 210 3.0 5.0 0.00 0.05 0.05 96 1014.0
20260509142417 75 207 5.0 6.0 0.00 0.05 0.05 95 1014.1
20260509141912 76 212 5.0 7.0 0.00 0.05 0.05 96 1013.9
20260509141410 76 164 4.0 5.0 0.00 0.05 0.05 96 1013.6
20260509140906 76 203 2.0 2.0 0.00 0.05 0.05 98 1013.9
20260509140403 75 193 2.0 2.0 0.00 0.05 0.05 99 1013.6
20260509135901 75 222 0.0 0.0 0.00 0.05 0.05 99 1013.5
20260509135358 74 191 3.0 5.0 0.00 0.05 0.05 99 1013.4
20260509134855 74 148 3.0 3.0 0.00 0.05 0.05 99 1013.6
20260509134353 74 145 3.0 5.0 0.00 0.05 0.05 99 1013.5
20260509133849 73 196 3.0 3.0 0.00 0.05 0.05 99 1013.6
20260509133346 73 199 3.0 3.0 0.00 0.05 0.05 99 1013.7
20260509132845 73 159 3.0 5.0 0.00 0.05 0.05 99 1013.7
20260509132343 72 203 0.0 1.0 0.00 0.05 0.05 99 1013.8
20260509131839 72 195 2.0 2.0 0.00 0.05 0.05 99 1014.2
20260509131336 72 195 2.0 2.0 0.00 0.05 0.05 99 1014.2
20260509130833 72 216 1.0 1.0 0.00 0.05 0.05 99 1014.5
20260509130328 72 217 0.0 0.0 0.00 0.05 0.05 99 1014.4
20260509125825 72 217 0.0 0.0 0.00 0.05 0.05 99 1014.6
20260509125322 72 217 0.0 0.0 0.00 0.05 0.05 99 1014.4
20260509124818 72 217 0.0 0.0 0.00 0.05 0.05 99 1014.3
20260509124315 72 217 0.0 0.0 0.00 0.05 0.05 99 1014.3
20260509123813 72 217 0.0 0.0 0.00 0.05 0.05 99 1014.3
20260509123310 72 217 0.0 0.0 0.00 0.05 0.05 99 1014.0
20260509122806 72 217 0.0 0.0 0.00 0.05 0.05 99 1014.0
20260509122306 72 217 0.0 0.0 0.00 0.05 0.05 99 1013.8
20260509121800 72 217 0.0 0.0 0.00 0.05 0.05 99 1014.1
20260509121257 72 217 0.0 0.0 0.00 0.05 0.05 99 1013.6
20260509120755 72 217 0.0 0.0 0.00 0.05 0.05 99 1013.9
20260509120252 72 217 0.0 0.0 0.00 0.05 0.05 99 1013.9
20260509115751 72 217 0.0 0.0 0.00 0.05 0.05 99 1014.2
20260509115247 72 217 0.0 0.0 0.00 0.05 0.05 99 1014.3
20260509114745 72 217 0.0 0.0 0.00 0.05 0.05 99 1014.3
20260509114244 72 216 0.0 0.0 0.00 0.05 0.05 99 1014.3
20260509113742 72 216 0.0 0.0 0.00 0.05 0.05 99 1014.4
20260509113239 72 216 1.0 1.0 0.00 0.05 0.05 99 1014.3
20260509112736 72 216 1.0 1.0 0.00 0.05 0.05 99 1014.9
20260509112233 72 216 0.0 0.0 0.00 0.05 0.05 99 1014.8
20260509111730 72 217 0.0 0.0 0.00 0.05 0.05 99 1014.9
20260509111226 72 217 0.0 0.0 0.00 0.05 0.05 99 1015.2
20260509110724 72 217 0.0 0.0 0.00 0.05 0.05 99 1015.0
20260509110220 72 217 0.0 0.0 0.00 0.05 0.05 99 1015.0
20260509105719 72 216 0.0 0.0 0.00 0.05 0.05 99 1015.2
20260509105216 72 217 0.0 0.0 0.24 0.05 0.05 99 1015.4
20260509104713 72 216 0.0 0.0 0.24 0.05 0.05 99 1015.3
20260509104210 72 216 0.0 0.0 0.00 0.01 0.01 99 1015.1
20260509103708 72 216 0.0 0.0 0.00 0.01 0.01 99 1015.1
20260509103205 72 216 0.0 0.0 0.00 0.01 0.01 99 1014.9
20260509102703 72 216 0.0 0.0 0.00 0.01 0.01 99 1015.1
20260509102200 72 216 0.0 0.0 0.00 0.01 0.01 99 1015.2
20260509101656 72 216 0.0 0.0 0.00 0.01 0.01 99 1015.0
20260509101153 72 215 0.0 0.0 0.00 0.01 0.01 99 1014.8
20260509100650 72 216 0.0 0.0 0.00 0.01 0.01 99 1014.6
20260509100147 72 216 0.0 0.0 0.00 0.01 0.01 99 1014.3
20260509095644 72 216 0.0 0.0 0.00 0.01 0.01 99 1014.1
20260509095141 72 216 0.0 0.0 0.00 0.01 0.01 99 1013.6
20260509094637 72 215 1.0 1.0 0.00 0.01 0.01 99 1013.8
20260509094135 72 216 0.0 0.0 0.00 0.01 0.01 99 1013.8
20260509093633 72 216 0.0 0.0 0.00 0.01 0.01 99 1013.6
20260509093130 72 216 0.0 0.0 0.00 0.01 0.01 99 1013.6
20260509092628 72 216 0.0 0.0 0.00 0.01 0.01 99 1013.6
20260509092126 72 215 0.0 0.0 0.00 0.01 0.01 99 1013.8
20260509091624 72 216 0.0 0.0 0.00 0.01 0.01 99 1013.7
20260509091120 72 216 0.0 0.0 0.00 0.01 0.01 99 1013.7
20260509090617 72 216 0.0 0.0 0.00 0.01 0.01 99 1013.5
20260509090115 72 216 0.0 0.0 0.07 0.01 0.01 99 1013.7
20260509085612 72 216 0.0 0.0 0.07 0.01 0.01 99 1013.5
20260509085108 72 216 0.0 0.0 0.00 0.00 0.00 99 1013.7
20260509084605 72 216 0.0 0.0 0.00 0.00 0.00 99 1013.7
20260509084102 72 216 0.0 0.0 0.00 0.00 0.00 99 1013.7
20260509083559 72 216 0.0 0.0 0.00 0.00 0.00 99 1013.7
20260509083056 73 216 0.0 0.0 0.00 0.00 0.00 99 1013.8
20260509082553 73 214 0.0 0.0 0.00 0.00 0.00 99 1014.0
20260509082050 73 214 0.0 0.0 0.00 0.00 0.00 99 1013.9
20260509081547 73 214 0.0 0.0 0.00 0.00 0.00 99 1014.1
20260509081044 73 214 0.0 1.0 0.00 0.00 0.00 99 1014.0
20260509080542 73 214 0.0 0.0 0.00 0.00 0.00 98 1014.2
20260509080040 73 213 0.0 0.0 0.00 0.00 0.00 98 1014.1
20260509075537 73 213 0.0 0.0 0.00 0.00 0.00 98 1013.9
20260509075035 73 213 0.0 0.0 0.00 0.00 0.00 98 1013.7
20260509074532 73 213 0.0 0.0 0.00 0.00 0.00 98 1013.9
20260509074028 73 213 0.0 0.0 0.00 0.00 0.00 97 1013.9
20260509073525 73 213 0.0 0.0 0.00 0.00 0.00 97 1013.7
20260509073021 73 213 0.0 0.0 0.00 0.00 0.00 97 1013.9
20260509072518 73 213 0.0 0.0 0.00 0.00 0.00 97 1014.1
20260509072015 73 213 0.0 0.0 0.00 0.00 0.00 97 1014.2
20260509071511 73 213 0.0 0.0 0.00 0.00 0.00 97 1014.2
20260509071009 73 213 0.0 0.0 0.00 0.00 0.00 97 1014.1
20260509070506 73 213 0.0 0.0 0.00 0.00 0.00 97 1013.9
20260509070002 73 213 0.0 0.0 0.00 0.00 0.00 97 1014.4
20260509065457 73 212 0.0 1.0 0.00 0.00 0.00 97 1014.2
20260509064954 73 212 0.0 0.0 0.00 0.00 0.00 96 1014.1
20260509064452 73 212 0.0 0.0 0.00 0.00 0.00 96 1014.0
20260509063950 73 212 0.0 0.0 0.00 0.00 0.00 96 1014.0
20260509063445 73 212 0.0 0.0 0.00 0.00 0.00 96 1013.9
20260509062942 73 212 0.0 0.0 0.00 0.00 0.00 96 1014.0
20260509062439 73 210 1.0 1.0 0.00 0.00 0.00 96 1014.0
20260509061937 73 203 1.0 1.0 0.00 0.00 0.00 96 1014.0
20260509061434 73 223 1.0 1.0 0.00 0.00 0.00 96 1013.9
20260509060931 73 211 0.0 0.0 0.00 0.00 0.00 97 1013.8
20260509060429 73 190 1.0 1.0 0.00 0.00 0.00 97 1013.7
20260509055923 73 210 2.0 3.0 0.00 0.00 0.00 97 1013.8
20260509055419 73 210 0.0 0.0 0.00 0.00 0.00 97 1013.4
20260509054916 73 197 1.0 2.0 0.00 0.00 0.00 97 1013.3
20260509054413 73 210 2.0 2.0 0.00 0.00 0.00 97 1013.5
20260509053911 73 207 2.0 2.0 0.00 0.00 0.00 97 1013.6
20260509053409 72 222 0.0 1.0 0.00 0.00 0.00 97 1013.7
20260509052906 72 207 0.0 1.0 0.00 0.00 0.00 97 1013.6
20260509052403 72 169 3.0 3.0 0.00 0.00 0.00 97 1013.1
20260509051901 72 209 4.0 6.0 0.00 0.00 0.00 97 1013.1
20260509051359 72 206 4.0 7.0 0.00 0.00 0.00 97 1012.8
20260509050855 72 220 1.0 2.0 0.00 0.00 0.00 97 1012.7
20260509050352 72 204 3.0 3.0 0.00 0.00 0.00 96 1012.9
20260509045849 72 211 1.0 2.0 0.00 0.00 0.00 96 1012.8
20260509045346 72 197 2.0 2.0 0.00 0.00 0.00 96 1013.0
20260509044843 72 155 2.0 2.0 0.00 0.00 0.00 96 1012.9
20260509044341 72 194 2.0 2.0 0.00 0.00 0.00 95 1013.1
20260509043837 73 208 2.0 2.0 0.00 0.00 0.00 95 1013.0
20260509043333 73 199 1.0 1.0 0.00 0.00 0.00 95 1013.1
20260509042829 73 208 3.0 5.0 0.00 0.00 0.00 95 1013.2
20260509042326 73 181 2.0 3.0 0.00 0.00 0.00 94 1012.8
20260509041822 73 165 3.0 3.0 0.00 0.00 0.00 94 1013.0
20260509041319 73 220 1.0 2.0 0.00 0.00 0.00 94 1013.3
20260509040818 73 197 0.0 1.0 0.00 0.00 0.00 94 1013.0
20260509040315 73 160 3.0 5.0 0.00 0.00 0.00 94 1013.2
20260509035812 73 201 3.0 3.0 0.00 0.00 0.00 94 1013.0
20260509035309 73 149 3.0 3.0 0.00 0.00 0.00 94 1013.1
20260509034805 73 201 2.0 2.0 0.00 0.00 0.00 93 1013.4
20260509034303 73 129 3.0 6.0 0.00 0.00 0.00 94 1013.2
20260509033759 73 196 1.0 1.0 0.00 0.00 0.00 93 1013.3
20260509033257 73 206 1.0 1.0 0.00 0.00 0.00 93 1013.3
20260509032754 73 196 0.0 1.0 0.00 0.00 0.00 93 1013.1
20260509032250 73 196 0.0 0.0 0.00 0.00 0.00 93 1013.2
20260509031748 73 196 0.0 0.0 0.00 0.00 0.00 92 1013.4
20260509031245 73 196 0.0 0.0 0.00 0.00 0.00 92 1013.4
20260509030743 73 195 0.0 1.0 0.00 0.00 0.00 92 1013.5
20260509030241 74 196 0.0 1.0 0.00 0.00 0.00 91 1013.0
20260509025737 74 196 0.0 0.0 0.00 0.00 0.00 91 1013.1
20260509025233 74 195 0.0 1.0 0.00 0.00 0.00 91 1013.1
20260509024728 74 199 3.0 3.0 0.00 0.00 0.00 91 1012.7
20260509024224 74 171 1.0 2.0 0.00 0.00 0.00 91 1012.7
20260509023722 74 191 1.0 1.0 0.00 0.00 0.00 90 1012.4
20260509023219 74 214 1.0 1.0 0.00 0.00 0.00 90 1012.7
20260509022715 75 215 1.0 1.0 0.00 0.00 0.00 90 1012.6
20260509022213 75 215 1.0 1.0 0.00 0.00 0.00 89 1012.6
20260509021710 75 215 2.0 2.0 0.00 0.00 0.00 89 1012.6
20260509021207 75 216 1.0 1.0 0.00 0.00 0.00 88 1012.4
20260509020705 75 217 2.0 2.0 0.00 0.00 0.00 88 1012.4
20260509020202 76 218 1.0 1.0 0.00 0.00 0.00 87 1012.2
20260509015700 76 216 1.0 1.0 0.00 0.00 0.00 87 1012.3
20260509015158 76 177 0.0 1.0 0.00 0.00 0.00 86 1012.0
20260509014654 76 175 2.0 2.0 0.00 0.00 0.00 86 1011.9
20260509014150 76 201 1.0 2.0 0.00 0.00 0.00 86 1012.1
20260509013648 76 195 2.0 2.0 0.00 0.00 0.00 86 1012.1
20260509013143 77 178 1.0 1.0 0.00 0.00 0.00 86 1011.9
20260509012640 77 198 3.0 5.0 0.00 0.00 0.00 85 1012.1
20260509012137 77 197 2.0 2.0 0.00 0.00 0.00 85 1011.8
20260509011635 77 197 1.0 2.0 0.00 0.00 0.00 85 1011.9